sat.trackr.live / text

‹ back to catalog

STARLINK-1284

NORAD 45390 · 2020-019AG

PAYLOAD ACTIVE UNKNOWN

§ Identity

Operator
Country
US
Launch date
2020-03-18
Launch site
AFETR
Launch vehicle
Mass (kg)
RCS (m²)

Purposes: comms

External: N2YO · Heavens-Above · Gunter

§ Orbital elements

Epoch: 2026-09-20T00:00:02.998944Z

Period
90.80 min
Inclination
53.0353°
Eccentricity
0.0005944
Mean motion
15.85919628 rev/d
Perigee alt
309.8 km
Apogee alt
317.7 km
Semi-major
6,691.9 km
B*
2.8736e-4
RAAN
250.5089°
Arg perigee
37.5983°
Mean anomaly
325.7633°
Rev number
603

§ Raw data

STARLINK-12841 45390U 20019AG  26263.00003471  .00071939  00000+0  28736-3 0  99942 45390  53.0353 250.5089 0005944  37.5983 325.7633 15.85919628  6030

JSON: /api/v1/satellites/45390 · /tle

For live sub-satellite position, see the globe view (requires WebGL).

§ Visibility from observer

Set your observer location to see the next 7 days of passes ≥ 10°. The values pass through the URL so the page stays shareable.

No JS? Fill the form by hand. The geolocation button needs JavaScript.